Regional Weather Roundup
Issued by NWS

Home | Current Version | Previous Version | Graphics & Text | Print | Product List | Glossary On
Versions: 1 2 3 4 5 6 7 8 9 10 11 12 13 14 15 16 17 18 19 20 21 22 23 24 25 26 27 28 29 30 31 32 33 34 35 36 37 38 39 40 41 42 43 44 45 46 47 48 49 50
000
ASUS43 KMKX 220759
RWRWI

WISCONSIN REGIONAL WEATHER ROUNDUP
NATIONAL WEATHER SERVICE MILWAUKEE/SULLIVAN WI
200 AM CST THU FEB 22 2018

NOTE: "FAIR" INDICATES FEW OR NO CLOUDS BELOW 12,000 FEET WITH NO
SIGNIFICANT WEATHER AND/OR OBSTRUCTIONS TO VISIBILITY.

WIZ001-002-006>008-014>016-023>028-220900-
NORTHWEST WISCONSIN

CITY           SKY/WX    TMP DP  RH WIND       PRES   REMARKS
SUPERIOR ARPT  FAIR      -6  -9  86 SW5       30.65F WCI -16
ASHLAND        FAIR       0  -2  91 SW6       30.65S WCI -12
HAYWARD        FAIR      -3  -9  75 CALM      30.62S
SIREN          FAIR      -4  -8  81 CALM      30.63F
CUMBERLAND     FAIR      -2  -6  84 NE3       30.61S
RICE LAKE      FAIR      -4  -8  85 CALM      30.63F
CHETEK         FAIR      -2  -5  86 CALM      30.63S
LADYSMITH      FAIR       0  -3  87 CALM      30.63S
EAU CLAIRE     NOT AVBL
MENOMONIE      FAIR       4   0  84 CALM      30.63S
NEW RICHMOND   FAIR      -1  -6  82 NE3       30.61F
OSCEOLA        FAIR       2  -2  85 CALM      30.65F
$$

WIZ003>005-009-010-017-018-220900-
NORTH CENTRAL WISCONSIN

CITY           SKY/WX    TMP DP  RH WIND       PRES   REMARKS
MANITOWISH WTR FAIR      -6 -10  85 CALM      30.58F
ARBOR VITAE    FAIR      -1  -5  84 CALM      30.58F
WOODRUFF       FAIR      -1  -5  84 CALM      30.58F
RHINELANDER    FAIR      -2  -6  83 CALM      30.58F
EAGLE RIVER    FAIR      -5 -10  79 CALM      30.58F
LAND O LAKES   FAIR     -11 -16  79 CALM      30.60S
PHILLIPS       FAIR      -4  -8  84 CALM      30.59S
TOMAHAWK       FAIR      -5  -8  84 CALM      30.60F
MEDFORD        FAIR      -2  -5  85 CALM      30.58F
MERRILL        FAIR      -1  -4  87 CALM      30.61F
$$

WIZ029-030-035-036-043>047-220900-
CENTRAL WISCONSIN

CITY           SKY/WX    TMP DP  RH WIND       PRES   REMARKS
WAUSAU         FAIR       6   3  87 N3        30.58F
MOSINEE        FAIR      10   7  85 N7        30.61F WCI   0
MARSHFIELD     FAIR      11   3  70 NE7       30.57F WCI   0
STEVENS POINT  FAIR       8   5  89 CALM      30.61F
WAUPACA        FAIR      18  11  76 CALM      30.64F
WAUTOMA        FAIR      17  11  77 E5        30.62F WCI  10
WISC RAPIDS    FAIR      14   7  73 NE5       30.60F WCI   6
CAMP DOUGLAS   FAIR      17  13  83 CALM      30.60F
$$

WIZ011>013-019>022-031-037>040-048>050-220900-
NORTHEAST WISCONSIN

CITY           SKY/WX    TMP DP  RH WIND       PRES   REMARKS
ANTIGO         FAIR       1  -1  88 NE3       30.59F
SHAWANO        FAIR      17   9  71 CALM      30.64S
OCONTO         FAIR      17  10  72 CALM      30.66F
STURGEON BAY   FAIR      17  12  80 NW3       30.66F
GREEN BAY      FAIR      18   9  68 NE3       30.66F
MANITOWOC      FAIR      21  13  71 N5        30.65F WCI  15
APPLETON       FAIR      18   7  62 NE6       30.62S WCI   9
CLINTONVILLE   FAIR      16   8  71 NE3       30.63F
OSHKOSH        MOCLDY    19  11  70 E6        30.63F WCI  11
$$

WIZ032>034-041-042-053>061-220900-
SOUTHWEST WISCONSIN

CITY           SKY/WX    TMP DP  RH WIND       PRES   REMARKS
LA CROSSE      FAIR      19  15  84 NW3       30.62F
SPARTA         FAIR      16  14  94 CALM      30.62F
VIROQUA        MOCLDY    19  18  93 E6        30.57F WCI  11
BOSCOBEL       CLOUDY    24  15  68 E3        30.60F
PRAIRIE DU CHI CLOUDY    24  13  64 NE3       30.59F
PLATTEVILLE    MOCLDY    24  15  70 NE10      30.58S WCI  13
$$

WIZ056-057-062-063-064-067-068-220900-
SOUTH CENTRAL WISCONSIN

CITY           SKY/WX    TMP DP  RH WIND       PRES   REMARKS
REEDSBURG      CLOUDY    20  14  78 E3        30.61R
BARABOO/DELLS  CLOUDY    20  14  78 E6        30.60F WCI  12
LONE ROCK      NOT AVBL
MINERAL POINT  CLOUDY    25  18  74 NE10      30.56F WCI  15
MADISON        CLOUDY    22  14  71 E10       30.61F WCI  11
MIDDLETON      CLOUDY    24  17  73 E8        30.61F WCI  15
WATERTOWN      FAIR      22  15  74 NE5       30.61S WCI  16
MONROE         MOCLDY    25  16  68 NE13      30.57S WCI  13
JANESVILLE     FAIR      27  18  69 NE5       30.60R WCI  21
$$

WIZ051-052-058>065-066-070>072-220900-
SOUTHEAST WISCONSIN

CITY           SKY/WX    TMP DP  RH WIND       PRES   REMARKS
MILWAUKEE      CLOUDY    29  20  69 NE9       30.61F WCI  20
WAUKESHA       FAIR      21  12  68 N5        30.62S WCI  15
MILWAUKEE/TIMM FAIR      23  12  63 N5        30.63F WCI  17
RACINE         FAIR      28  21  75 NE10      30.62F WCI  19
BURLINGTON     FAIR      24  17  72 NE5       30.60S WCI  19
KENOSHA        FAIR      29  21  72 NE9       30.59F WCI  20
FOND DU LAC    MOCLDY    21  12  68 NE6       30.63F WCI  13
SHEBOYGAN      FAIR      21  14  74 N6        30.64S WCI  13
WEST BEND      FAIR      23  14  68 N3        30.62S
JUNEAU         MOCLDY    20  13  74 NE6       30.63S WCI  12
$$

LSZ147-162-220900-
LAKE SUPERIOR

STATION/POSITION TIME  TEMP    WIND        PRES    WAVE
                       AIR SEA DIR/SP/G            HT/PER
                 (UTC) (F)     (DEG/KT/KT) (MB)    (FT/S)
DEVILS ISLAND    0700   17     230/ 15/ 19 1039.2R
SAXON HARBOR     0730    7     190/  3/  5 1037.6S
$$

LMZ867-665-643>646-220900-
LAKE MICHIGAN

STATION/POSITION TIME  TEMP    WIND        PRES    WAVE
                       AIR SEA DIR/SP/G            HT/PER
                 (UTC) (F)     (DEG/KT/KT) (MB)    (FT/S)
NORTHPORT PIER   0740   20                 1037.6F
KEWAUNEE LAKESHO 0730   20      CALM  /  1 1037.3F
SHEBOYGAN LAKESH 0700   26      10/ 12/ 14 1038.6F
PORT WASHINGTON  0740   24     350/  4/  7 1037.9F
MILWAUKEE LAKESH 0730   29      40/ 13/ 14   N/A
KENOSHA   LAKESH 0700   29      40/ 12/ 13 1035.9F
$$

TC  - TEMPERATURE IN CELSIUS
VSB - VISIBILITY IN STATUTE MILES
WCI - WIND CHILL INDEX
HX  - HEAT INDEX





USA.gov is the U.S. government's official web portal to all federal, state and local government web resources and services.